[[{"header":{"parameterUnit":"m.s-1","parameterCategory":1,"la1":30.2991,"la2":30.254,"lo1":-89.0895,"lo2":-89.0444,"dy":0.0017,"dx":0.0017,"nx":28,"ny":28,"refTime":"2023-04-30T15:00:00:Z","depth":0,"parameterNumber":2,"parameterNumberName":"U-component_of_WINDS"},"data":[0,0,0,0,0,0,0,0,0,0,0,0,0,0,0,0,0,0,0,0,0,0,0,0,0,0,0,0,0,0,0,0,0,0,0,0,0,0,0,0,0,0,0,0,0,0,0,0,0,0,0,0,0,0,0,0,0,0,4.5117,4.5118,0,4.5203,4.5204,4.5205,4.5152,4.515,4.5147,4.5145,4.5233,4.5238,4.5243,0,0,0,0,0,0,0,0,0,0,0,0,0,4.4909,4.4913,4.5117,4.5118,4.5119,4.5203,4.5204,4.5206,4.5153,4.5149,4.5146,4.5144,4.5232,4.5237,4.5243,0,0,0,0,0,0,0,0,0,0,0,0,0,4.4998,4.4915,4.5117,4.5103,4.5103,4.5203,4.5204,4.5206,4.5153,4.5149,4.5146,4.5142,4.523,4.5237,4.5244,4.5363,0,0,4.5265,4.5268,0,0,0,0,0,0,0,0,4.4993,4.5005,4.5104,4.5104,4.5104,4.5163,4.5163,4.5259,4.5154,4.5134,4.5145,4.514,4.5213,4.5221,4.5246,4.5367,4.5371,4.5266,4.527,4.5273,4.5275,0,0,0,0,0,0,0,4.4987,4.5001,4.5151,4.5106,4.5106,4.5093,4.5102,4.5181,4.5194,4.5135,4.5132,4.5143,4.5212,4.5239,4.5247,4.5372,4.5266,4.5272,4.5276,4.5279,4.5598,4.5602,0,0,0,0,0,0,4.4982,4.4997,4.5149,4.5154,4.5038,4.51,4.5109,4.5148,4.5193,4.5196,4.5146,4.514,4.5229,4.5239,4.525,4.5394,4.5273,4.528,4.5284,4.5594,4.5599,4.5604,0,0,0,0,0,0,4.4977,4.4996,4.5145,4.5074,4.5092,4.5108,4.5151,4.5152,4.5178,4.52,4.5203,4.5171,4.5226,4.524,4.5336,4.5397,4.5283,4.5289,4.5589,4.5595,4.5601,4.5682,0,0,0,0,0,0,4.4971,4.4994,4.5039,4.5076,4.5096,4.5229,4.5155,4.5156,4.519,4.5184,4.5224,4.5228,4.5224,4.5326,4.5343,4.5404,4.5295,4.5583,4.5592,4.5599,4.5674,4.5691,4.5705,0,0,0,0,0,4.4964,4.5058,4.5042,4.506,4.5153,4.5232,4.5244,4.5238,4.5196,4.5241,4.5256,4.5226,4.5387,4.5336,4.5355,4.5419,4.558,4.5589,4.5599,4.5668,4.5688,4.5704,0,0,0,0,0,0,4.5028,4.5063,4.5045,4.5153,4.519,4.5223,4.528,4.5259,4.5309,4.5301,4.5292,4.5302,4.5402,4.542,4.5362,4.5538,4.5477,4.5491,4.5523,4.5542,4.5557,4.5551,4.5301,0,0,0,0,0,4.5054,4.5116,4.5143,4.5236,4.5256,4.5265,4.53,4.5292,4.533,4.5346,4.5367,4.5406,4.5465,4.5504,4.556,4.5677,4.5686,4.5731,4.5746,4.5758,4.577,4.5836,4.5857,4.5635,4.5635,4.5635,0,0,4.511,4.5137,4.5176,4.525,4.5277,4.5342,4.5279,4.5349,4.5397,4.5356,4.5448,4.5466,4.5508,4.5615,4.5664,4.5634,4.5834,4.577,4.578,4.5786,4.5848,4.5869,4.5887,4.5641,4.564,4.5639,0,0,4.5245,4.527,4.5352,4.5381,4.5425,4.5431,4.545,4.5487,4.5497,4.5589,4.5561,4.5618,4.572,4.5752,4.5782,4.5932,4.5907,4.595,4.603,4.6093,4.6111,4.6126,4.6181,4.6201,4.5962,4.5962,4.5962,0,4.5308,4.5404,4.5396,4.547,4.5504,4.547,4.5554,4.5583,4.5642,4.5667,4.5632,4.5761,4.5787,4.5903,4.5939,4.5964,4.5987,4.5945,4.6109,4.6124,4.6139,4.6191,4.6212,4.5967,4.5967,4.5966,4.5966,0,4.5481,4.5549,4.5609,4.5668,4.5709,4.5787,4.5792,4.5834,4.5824,4.5834,4.593,4.596,4.6022,4.6049,4.6039,4.6164,4.6144,4.611,4.6048,4.6165,4.6214,4.6234,4.5975,4.5973,4.5971,4.597,0,0,4.5658,4.5713,4.5735,4.5762,4.5809,4.5861,4.5938,4.5999,4.6037,4.6079,4.6145,4.6233,4.6202,4.6236,4.623,4.6286,4.6405,4.6244,4.6245,4.6274,4.6546,4.6573,4.6596,4.6388,4.6392,4.6395,4.6543,0,4.5796,4.5931,4.5927,4.6053,4.6116,4.6086,4.6154,4.619,4.6202,4.6258,4.6271,4.6334,4.6288,4.6308,4.6362,4.6379,4.6459,4.6368,4.6451,4.6454,4.6442,4.6622,4.6649,4.6788,4.6562,4.6565,4.6568,0,4.5976,4.6025,4.6158,4.6197,4.6223,4.6284,4.6341,4.6394,4.6435,4.644,4.648,4.6465,4.6545,4.6481,4.6592,4.653,4.6563,4.6577,4.6582,4.659,4.6518,4.6636,4.6831,4.6853,4.6598,4.6595,4.6593,0,4.6093,4.6193,4.6286,4.631,4.6357,4.6401,4.6423,4.646,4.6498,4.6548,4.6573,4.6631,4.6664,4.671,4.6712,4.6665,4.6825,4.6761,4.6833,4.6833,4.6868,4.6866,4.7073,4.6888,4.6888,4.6888,4.6887,0,4.6249,4.6332,4.6339,4.6396,4.6489,4.6484,4.6576,4.6593,4.6628,4.6688,4.6666,4.6724,4.6722,4.6782,4.6784,4.6877,4.6891,4.6898,4.6898,4.6901,4.6901,4.6924,4.6915,4.6893,4.6892,4.6891,4.689,0,4.6396,4.6404,4.6504,4.6541,4.6552,4.6619,4.6651,4.6706,4.6716,4.6794,4.6812,4.6829,4.6897,4.6904,4.6984,4.6985,4.7098,4.7087,4.7084,4.7083,4.7155,4.7149,4.7385,4.7417,4.721,4.7212,4.7214,0,4.6496,4.6559,4.6603,4.6642,4.6667,4.673,4.6769,4.6767,4.6809,4.6862,4.6911,4.6978,4.7031,4.7143,4.7162,4.7224,4.7215,4.7294,4.7224,4.7226,4.7218,4.7215,4.7222,4.7307,4.731,4.7311,4.7313,0,4.6672,4.6674,4.673,4.6789,4.6836,4.6883,4.6926,4.696,4.6963,4.7012,4.7082,4.7123,4.7205,4.7273,4.7333,4.7357,4.7337,4.7335,4.7355,4.7359,4.7356,4.736,4.7123,4.7329,4.7328,4.7327,4.7326,4.7325,4.6799,4.6855,4.6896,4.696,4.6993,4.7034,4.7088,4.7106,4.7165,4.7231,4.7227,4.7305,4.7347,4.7426,4.7455,4.7516,4.749,4.7519,4.7527,4.7534,4.7542,4.7345,4.7527,4.7527,4.7526,4.7526,4.7526,0,4.6976,4.7001,4.7061,4.7123,4.7174,4.715,4.7197,4.7242,4.7311,4.7352,4.7405,4.7487,4.7552,4.7578,4.7642,4.7687,4.768,4.7704,4.7702,4.7708,4.7561,4.7538,4.7709,4.7709,4.7709,4.7709,4.7709,4.7709,4.7074,4.7168,4.7174,4.7284,4.7308,4.7385,4.7414,4.7453,4.7486,4.7578,4.7633,4.7649,4.7684,4.7751,4.7811,4.7816,4.7842,4.7871,4.7873,4.7736,4.7718,4.77,4.7678,4.7876,4.7876,4.8015,4.8016,4.8017]},{"header":{"parameterUnit":"m.s-1","parameterCategory":1,"la1":30.2991,"la2":30.254,"lo1":-89.0895,"lo2":-89.0444,"dy":0.0017,"dx":0.0017,"nx":28,"ny":28,"refTime":"2023-04-30T15:00:00:Z","depth":0,"parameterNumber":3,"parameterNumberName":"V-component_of_WINDS"},"data":[0,0,0,0,0,0,0,0,0,0,0,0,0,0,0,0,0,0,0,0,0,0,0,0,0,0,0,0,0,0,0,0,0,0,0,0,0,0,0,0,0,0,0,0,0,0,0,0,0,0,0,0,0,0,0,0,0,0,-0.3194,-0.3194,0,-0.3205,-0.3205,-0.3206,-0.3265,-0.3266,-0.3268,-0.3269,-0.3276,-0.3275,-0.3274,0,0,0,0,0,0,0,0,0,0,0,0,0,-0.322,-0.322,-0.3194,-0.3194,-0.3194,-0.3205,-0.3205,-0.3206,-0.3265,-0.3266,-0.3268,-0.327,-0.3277,-0.3275,-0.3274,0,0,0,0,0,0,0,0,0,0,0,0,0,-0.3218,-0.3219,-0.3194,-0.3225,-0.3228,-0.3205,-0.3205,-0.3206,-0.3264,-0.3266,-0.3268,-0.327,-0.3277,-0.3275,-0.3274,-0.322,0,0,-0.3268,-0.3268,0,0,0,0,0,0,0,0,-0.3218,-0.3217,-0.3221,-0.3223,-0.3226,-0.3236,-0.3217,-0.321,-0.3264,-0.325,-0.3269,-0.3272,-0.3261,-0.3261,-0.3258,-0.3221,-0.3221,-0.3268,-0.3267,-0.3267,-0.3266,0,0,0,0,0,0,0,-0.3218,-0.3217,-0.3199,-0.3221,-0.3224,-0.3238,-0.324,-0.3216,-0.3243,-0.3252,-0.3256,-0.3257,-0.3263,-0.3259,-0.3258,-0.3221,-0.3268,-0.3267,-0.3266,-0.3265,-0.314,-0.3138,0,0,0,0,0,0,-0.3214,-0.3216,-0.3198,-0.3199,-0.3227,-0.3235,-0.3238,-0.3231,-0.3244,-0.3248,-0.3255,-0.3259,-0.3261,-0.326,-0.3259,-0.3197,-0.3267,-0.3265,-0.3264,-0.3142,-0.314,-0.3137,0,0,0,0,0,0,-0.3215,-0.3212,-0.3198,-0.3209,-0.3208,-0.3233,-0.3224,-0.323,-0.3226,-0.3246,-0.3251,-0.3247,-0.3263,-0.3261,-0.323,-0.3198,-0.3264,-0.3263,-0.3145,-0.3142,-0.3138,-0.3073,0,0,0,0,0,0,-0.3215,-0.3212,-0.3193,-0.3208,-0.3207,-0.3169,-0.3222,-0.3228,-0.3224,-0.323,-0.324,-0.3243,-0.3264,-0.3232,-0.3228,-0.3197,-0.3261,-0.3148,-0.3144,-0.314,-0.3078,-0.3067,-0.3058,0,0,0,0,0,-0.3216,-0.3173,-0.3192,-0.3189,-0.3184,-0.3167,-0.3167,-0.3193,-0.3221,-0.3201,-0.3214,-0.3243,-0.3202,-0.3228,-0.3224,-0.3192,-0.315,-0.3145,-0.314,-0.3082,-0.3069,-0.3059,0,0,0,0,0,0,-0.3152,-0.3176,-0.3196,-0.3157,-0.316,-0.3177,-0.3153,-0.3179,-0.3172,-0.3178,-0.321,-0.3211,-0.3175,-0.318,-0.3209,-0.3141,-0.3181,-0.3175,-0.3138,-0.3127,-0.3117,-0.3116,-0.326,0,0,0,0,0,-0.3134,-0.3119,-0.314,-0.3104,-0.3104,-0.3128,-0.3122,-0.3142,-0.3146,-0.3147,-0.3157,-0.3158,-0.3146,-0.3137,-0.3126,-0.3079,-0.3081,-0.3055,-0.3045,-0.3037,-0.3031,-0.3006,-0.2994,-0.312,-0.312,-0.312,0,0,-0.3095,-0.3106,-0.3095,-0.3091,-0.3096,-0.3079,-0.3129,-0.3109,-0.3097,-0.3143,-0.3114,-0.3122,-0.3125,-0.3085,-0.3068,-0.3089,-0.2997,-0.3031,-0.3024,-0.3023,-0.2999,-0.2987,-0.2977,-0.3117,-0.3117,-0.3118,0,0,-0.3016,-0.3024,-0.2994,-0.2997,-0.3004,-0.3021,-0.3013,-0.3027,-0.3034,-0.3006,-0.304,-0.3025,-0.3003,-0.3004,-0.3001,-0.2923,-0.2949,-0.2918,-0.2868,-0.2843,-0.2833,-0.2824,-0.2795,-0.2785,-0.2913,-0.2912,-0.2912,0,-0.2967,-0.2944,-0.2975,-0.2953,-0.295,-0.2993,-0.2962,-0.2964,-0.2966,-0.2962,-0.2986,-0.2959,-0.2964,-0.2925,-0.2906,-0.2902,-0.2894,-0.2917,-0.2832,-0.2824,-0.2816,-0.2789,-0.2778,-0.2909,-0.2909,-0.2909,-0.291,0,-0.2883,-0.2867,-0.2842,-0.2844,-0.2838,-0.2812,-0.2837,-0.2827,-0.2848,-0.2861,-0.2831,-0.2839,-0.2831,-0.2824,-0.2843,-0.2787,-0.2799,-0.2827,-0.2868,-0.28,-0.2774,-0.2764,-0.2903,-0.2904,-0.2906,-0.2907,0,0,-0.2764,-0.2784,-0.2774,-0.2775,-0.2786,-0.2773,-0.2748,-0.2742,-0.2732,-0.2732,-0.2711,-0.2692,-0.2717,-0.2714,-0.2734,-0.2712,-0.2648,-0.2743,-0.2743,-0.2724,-0.2586,-0.2564,-0.2552,-0.2666,-0.2665,-0.2663,-0.2585,0,-0.2688,-0.2648,-0.2674,-0.263,-0.2614,-0.2655,-0.2633,-0.2636,-0.2648,-0.2636,-0.2649,-0.2634,-0.267,-0.2668,-0.2648,-0.266,-0.2621,-0.2667,-0.2646,-0.2645,-0.2643,-0.2539,-0.2516,-0.2443,-0.2576,-0.2574,-0.2573,0,-0.2594,-0.2591,-0.2544,-0.2558,-0.2552,-0.2532,-0.2528,-0.2516,-0.252,-0.2531,-0.2527,-0.2553,-0.2528,-0.2569,-0.2535,-0.2565,-0.2558,-0.2563,-0.2561,-0.2559,-0.2604,-0.2534,-0.242,-0.2409,-0.2558,-0.2559,-0.256,0,-0.251,-0.2495,-0.2465,-0.2465,-0.248,-0.2465,-0.247,-0.2476,-0.247,-0.2466,-0.2463,-0.2455,-0.2451,-0.2444,-0.2466,-0.2494,-0.2428,-0.2471,-0.2435,-0.2434,-0.2418,-0.2419,-0.2301,-0.2415,-0.2415,-0.2415,-0.2416,0,-0.2422,-0.2392,-0.2428,-0.2409,-0.2376,-0.2407,-0.2373,-0.2382,-0.2388,-0.2371,-0.2405,-0.2388,-0.2419,-0.2405,-0.2422,-0.2391,-0.2388,-0.2395,-0.24,-0.2391,-0.239,-0.2387,-0.2392,-0.2412,-0.2413,-0.2414,-0.2414,0,-0.2323,-0.2346,-0.2316,-0.2333,-0.2336,-0.2311,-0.2325,-0.2308,-0.2323,-0.2301,-0.2297,-0.2319,-0.2305,-0.2326,-0.2313,-0.2325,-0.2281,-0.2294,-0.228,-0.2284,-0.2246,-0.2249,-0.2121,-0.2105,-0.223,-0.2228,-0.2227,0,-0.2265,-0.2243,-0.2258,-0.2249,-0.2253,-0.2239,-0.2234,-0.2263,-0.2255,-0.2258,-0.224,-0.2229,-0.2221,-0.2195,-0.2209,-0.2199,-0.2212,-0.2168,-0.221,-0.2203,-0.221,-0.2211,-0.2208,-0.2158,-0.2157,-0.2156,-0.2155,0,-0.2159,-0.2172,-0.2163,-0.2158,-0.2151,-0.2148,-0.2147,-0.2138,-0.2169,-0.2158,-0.2144,-0.2138,-0.2126,-0.2113,-0.2107,-0.2111,-0.2137,-0.2141,-0.2132,-0.2123,-0.2116,-0.2118,-0.2255,-0.2144,-0.2145,-0.2146,-0.2146,-0.2147,-0.2079,-0.2061,-0.2068,-0.2057,-0.206,-0.2059,-0.2044,-0.2056,-0.2046,-0.2039,-0.2056,-0.2037,-0.2041,-0.2036,-0.2037,-0.2022,-0.2041,-0.2028,-0.2025,-0.2021,-0.2015,-0.2119,-0.2021,-0.2022,-0.2022,-0.2022,-0.2023,0,-0.1974,-0.1981,-0.1971,-0.1969,-0.196,-0.1987,-0.1988,-0.1978,-0.1962,-0.1964,-0.1956,-0.1939,-0.1927,-0.1941,-0.1931,-0.1916,-0.1928,-0.1913,-0.1914,-0.1914,-0.1999,-0.2007,-0.1903,-0.1903,-0.1903,-0.1903,-0.1903,-0.1903,-0.1919,-0.189,-0.1903,-0.1875,-0.1882,-0.1865,-0.1863,-0.1862,-0.1864,-0.1844,-0.1835,-0.1844,-0.185,-0.1841,-0.1831,-0.1835,-0.1829,-0.181,-0.1818,-0.1896,-0.1908,-0.1919,-0.1927,-0.1808,-0.1808,-0.1734,-0.1733,-0.1733]}]]